Regional Weather Roundup
Issued by NWS

Home | Current Version | Previous Version | Graphics & Text | Print | Product List | Glossary On
Versions: 1 2 3 4 5 6 7 8 9 10 11 12 13 14 15 16 17 18 19 20 21 22 23 24 25 26 27
000
ASUS45 KTFX 180510
RWRMT
MONTANA REGIONAL WEATHER ROUNDUP
NATIONAL WEATHER SERVICE GREAT FALLS MT
1100 PM MDT TUE OCT 17 2017

NOTE: "FAIR" INDICATES FEW OR NO CLOUDS BELOW 12000 FEET WITH NO
SIGNIFICANT WEATHER AND/OR OBSTRUCTIONS TO VISIBILITY.

MTZ001>007-043-180600-
WEST OF THE DIVIDE

CITY           SKY/WX    TMP DP  RH WIND       PRES   REMARKS
KALISPELL      CLOUDY    48  25  40 VRB7      29.94R
MISSOULA       CLOUDY    57  37  47 W9        30.01R
BUTTE          CLEAR     54  20  26 W8        30.03R
MULLAN PASS    CLOUDY    36  16  44 SW9G21    30.03R WCI  29
ANACONDA         N/A     55  21  26 SW12G23   29.99R
DEER LODGE       N/A     57  25  28 NE5       30.01R
HAMILTON         N/A     61  28  29 S8G23     30.01R
LIBBY            N/A     54  14  20 W8        29.96R
$$

MTZ008-052>055-180600-
SOUTHWEST MONTANA

CITY           SKY/WX    TMP DP  RH WIND       PRES   REMARKS
BOZEMAN        CLOUDY    47  23  38 NE6       29.95R
DILLON         CLEAR     50  19  29 S15       30.00R
W YELLOWSTONE  CLOUDY    46  19  34 VRB6      30.12S
ENNIS          CLOUDY    50  19  29 S13       30.08R
THREE FORKS      N/A     50  19  29 SW5       29.94R
$$

MTZ009-010-012-014-046-048-049-054-180600-
EAST SLOPES AND CENTRAL MONTANA

CITY           SKY/WX    TMP DP  RH WIND       PRES   REMARKS
CUT BANK       CLOUDY    48  26  42 NW24G32   29.80R
GREAT FALLS    CLOUDY    59  26  28 W29G48    29.77R
MALMSTROM AFB  CLOUDY    60  27  27 W28G38    29.77R
HELENA         CLOUDY    60  25  26 W13       29.89R
BOWMANS CRNR     N/A     54  26  34 W44G61    29.76F
CHOTEAU          N/A     55  27  33 W31G43    29.79R
FAIRFIELD        N/A     57  26  30 W23G38    29.77R
POWER            N/A     55  27  34 W17G25    29.76R
RAYNESFORD       N/A     60  23  24 W26G51    29.79R
ULM              N/A     59  27  29 W33G44    29.79R
$$

MTZ011-013-016-021-045-047-050-051-180600-
NORTH CENTRAL MONTANA

CITY           SKY/WX    TMP DP  RH WIND       PRES   REMARKS
HAVRE          CLOUDY    55  24  30 NW33G45   29.74R
LEWISTOWN      CLOUDY    57  23  26 W15       29.78R
N BAR RANCH      N/A     61  16  17 NW18G28   29.74R
CHINOOK          N/A     52  34  50 NW22G38   29.73R
DENTON           N/A     62  24  23 W32G41    29.74R
GEYSER           N/A     60  23  23 W35G52    29.77R
GRASS RANGE      N/A     62  20  20 W28G47    29.67R
JUDITH GAP       N/A     59  20  22 W26G36    29.79R
WINIFRED         N/A     63  22  20 W37G45    29.76R
$$

MTZ017>020-022>027-061-062-180600-
NORTHEAST MONTANA

CITY           SKY/WX    TMP DP  RH WIND       PRES   REMARKS
GLASGOW        PTCLDY    67  24  19 W25G38    29.58R
JORDAN           N/A     63  22  20 NW13      29.64R
SIDNEY         CLOUDY    62  26  25 SW15      29.53S
WOLF POINT     CLOUDY    69  25  19 W21G29    29.56R
MALTA            N/A     59  28  31 NW35G48   29.64R
PLENTYWOOD       N/A     64  25  22 W17G25    29.48R
POPLAR           N/A     70  27  19 W23G37    29.54R
$$

MTZ028>42-056>058-180600-
SOUTHCENTRAL AND SOUTHEAST MONTANA

CITY           SKY/WX    TMP DP  RH WIND       PRES   REMARKS
BAKER          CLOUDY    65  18  16 SW13      29.67F
BILLINGS       PTCLDY    60  21  22 SW13      29.73F
LIVINGSTON     CLEAR     62  19  19 SW23G39   29.88R
MILES CITY     CLOUDY    60  26  27 S12       29.66S
BIG TIMBER     CLEAR     61  16  17 W29G35    29.85S
FORSYTH          N/A     70  19  14 SW14G20   29.67R
HARLOWTON        N/A     60  18  19 MISG      29.74R
LAUREL           N/A     66  16  14 SW24G31   29.75S
$$

REGIONAL REPORTS...DAKOTAS

CITY           SKY/WX    TMP DP  RH WIND       PRES   REMARKS
WILLISTON      CLOUDY    60  27  28 SW12      29.49S
MINOT          CLOUDY    65  26  23 SW16G24   29.48F
DICKINSON      PTCLDY    56  25  30 S15       29.61F
BEACH            N/A     64  18  16 SW18      29.65S
CROSBY           N/A     57  27  30 SW20G28   29.44R
TIOGA            N/A     61  25  25 SW20G26   29.49S
WATFORD CITY     N/A     68  23  18 SW17      29.51S
BISMARCK       CLOUDY    63  25  23 SW10      29.62F
GRAND FORKS    CLOUDY    53  37  54 S12       29.58F
FARGO          CLEAR     55  41  59 S12       29.67F
BUFFALO SD       N/A     56  27  32 S9        29.65F
RAPID CITY     CLEAR     47  26  44 W3        29.80F
$$

REGIONAL REPORTS...WYOMING/IDAHO/WASHINGTON

CITY           SKY/WX    TMP DP  RH WIND       PRES   REMARKS
GILLETTE       CLOUDY    63  20  19 SW21G28   29.84F
SHERIDAN       CLOUDY    66  20  17 SW9       29.78F
BUFFALO WY     CLOUDY    68  11  11 SW23G30   29.87F
CODY           CLOUDY    62  14  15 SE12G21   29.93F
IDAHO FALLS    CLOUDY    48  28  46 SW9       30.10R
SALMON         CLEAR     38  28  67 VRB3      30.06R
BOISE          CLEAR     47  33  58 CALM      30.12R
SPOKANE        CLOUDY    49  20  31 W8        30.05R
$$

REGIONAL REPORTS...ALBERTA

CITY           SKY/WX    TMP DP  RH WIND       PRES   REMARKS
EDMONTON       CLEAR     37  27  65 W22       29.57R WCI  27
CALGARY        PTCLDY    36  32  87 VRB2      29.73R
LETHBRIDGE     CLEAR     46  14  27 W31G45    29.78R
MEDICINE HAT     N/A     43  36  75 MISG      29.75R
$$

REGIONAL REPORTS...SASKATCHEWAN

CITY           SKY/WX    TMP DP  RH WIND       PRES   REMARKS
SWIFT CURRENT  MOCLDY    41  36  81 W29G37    29.56
$$




USA.gov is the U.S. government's official web portal to all federal, state and local government web resources and services.